Soldotna, AK

12:15 PM AKDT on July 27, 2017 (GMT -0800)
Soldotna

Weather History for PASX - February, 2013

Change the Weather History Date:

Tuesday, February 5, 2013

  Actual Average Record
Temperature  
Mean Temperature 21 °F -  
Max Temperature 30 °F 25 °F 44 °F (1960)
Min Temperature 12 °F 7 °F -36 °F (1999)
Degree Days  
Heating Degree Days 44    
Moisture  
Dew Point 19 °F    
Average Humidity 92    
Maximum Humidity 100    
Minimum Humidity 86    
Precipitation  
Precipitation 0.00 in - - ()
Sea Level Pressure  
Sea Level Pressure 29.55 in    
Wind  
Wind Speed 1 mph (ENE)    
Max Wind Speed 6 mph    
Max Gust Speed -    
Visibility 8 miles    
Events      
Averages and records for this station are not official NWS values.
T = Trace of Precipitation, MM = Missing Value Source: NWS Daily Summary

Daily Weather History Graph

Daily Weather History Graph

Search for Another Location

Airport or City:

Trip Planner

Search our weather history database for the weather conditions in past years. The results will help you decide how hot, cold, wet, or windy it might be!

Date:

Astronomy

Feb. 05, 2013 Rise Set
Actual Time 9:09 AM AKST 5:28 PM AKST
Civil Twilight 8:22 AM AKST 6:14 PM AKST
Nautical Twilight 7:31 AM AKST 7:05 PM AKST
Astronomical Twilight 6:42 AM AKST 7:54 PM AKST
Moon 5:38 AM AKST (2/5) 12:18 PM AKST (2/5)
Length of Visible Light 9h 52m
Length of Day
8h 18m
Waning Crescent, 25% of the Moon is Illuminated
Feb 5
Waning Crescent
Feb 9
New
Feb 17
First Quarter
Feb 25
Full
Mar 4
Last Quarter

Hourly Weather History & Observations

Time (AKST) Temp. Windchill Dew Point Humidity Pressure Visibility Wind Dir Wind Speed Gust Speed Precip Events Conditions
12:16 AM 26.6 °F - 26.6 °F 100% 29.61 in 1.2 mi Calm Calm - N/A   Overcast
12:36 AM 26.6 °F 22.6 °F 26.6 °F 100% 29.61 in 1.5 mi ENE 3.5 mph - N/A   Overcast
12:56 AM 26.6 °F - 26.6 °F 100% 29.62 in 10.0 mi Calm Calm - N/A   Overcast
1:16 AM 26.6 °F - 26.6 °F 100% 29.61 in 10.0 mi Calm Calm - N/A   Overcast
1:36 AM 26.6 °F - 24.8 °F 93% 29.61 in 10.0 mi Calm Calm - N/A   Overcast
1:56 AM 26.6 °F - 24.8 °F 93% 29.61 in 10.0 mi Calm Calm - N/A   Overcast
2:16 AM 26.6 °F - 24.8 °F 93% 29.60 in 10.0 mi Calm Calm - N/A   Overcast
2:36 AM 24.8 °F 20.5 °F 23.0 °F 93% 29.60 in 5.0 mi East 3.5 mph - N/A   Overcast
2:56 AM 24.8 °F - 24.8 °F 100% 29.60 in 10.0 mi Calm Calm - N/A   Overcast
3:16 AM 24.8 °F 20.5 °F 21.2 °F 86% 29.60 in 10.0 mi East 3.5 mph - N/A   Scattered Clouds
3:36 AM 23.0 °F 18.4 °F 21.2 °F 93% 29.60 in 10.0 mi NW 3.5 mph - N/A   Mostly Cloudy
3:56 AM 23.0 °F - 21.2 °F 93% 29.60 in 5.0 mi Calm Calm - N/A   Overcast
4:16 AM 19.4 °F - 17.6 °F 93% 29.59 in 0.2 mi Calm Calm - N/A   Overcast
4:36 AM 19.4 °F - 17.6 °F 93% 29.59 in 0.2 mi Calm Calm - N/A   Overcast
4:56 AM 19.4 °F - 17.6 °F 93% 29.59 in 10.0 mi Calm Calm - N/A   Overcast
5:16 AM 19.4 °F - 15.8 °F 86% 29.59 in 10.0 mi Calm Calm - N/A   Overcast
5:36 AM 17.6 °F - 15.8 °F 93% 29.58 in 10.0 mi Calm Calm - N/A   Mostly Cloudy
5:56 AM 17.6 °F - 15.8 °F 93% 29.58 in 10.0 mi Calm Calm - N/A   Scattered Clouds
6:16 AM 15.8 °F - 12.2 °F 86% 29.58 in 10.0 mi Calm Calm - N/A   Scattered Clouds
6:36 AM 17.6 °F - 15.8 °F 93% 29.58 in 10.0 mi Calm Calm - N/A   Clear
6:56 AM 15.8 °F - 12.2 °F 86% 29.57 in 10.0 mi Calm Calm - N/A   Clear
7:16 AM 15.8 °F 10.2 °F 15.8 °F 100% 29.57 in 10.0 mi ENE 3.5 mph - N/A   Clear
7:36 AM 15.8 °F - 15.8 °F 100% 29.57 in 10.0 mi Calm Calm - N/A   Mostly Cloudy
7:56 AM 15.8 °F 10.2 °F 12.2 °F 86% 29.57 in 10.0 mi ENE 3.5 mph - N/A   Overcast
8:16 AM 15.8 °F 10.2 °F 12.2 °F 86% 29.57 in 10.0 mi East 3.5 mph - N/A   Overcast
8:36 AM 15.8 °F - 12.2 °F 86% 29.57 in 10.0 mi Calm Calm - N/A   Overcast
8:56 AM 17.6 °F 12.3 °F 15.8 °F 93% 29.57 in 10.0 mi ENE 3.5 mph - N/A   Overcast
9:16 AM 17.6 °F 10.7 °F 15.8 °F 93% 29.56 in 10.0 mi ENE 4.6 mph - N/A   Overcast
9:36 AM 17.6 °F 12.3 °F 15.8 °F 93% 29.56 in 10.0 mi ENE 3.5 mph - N/A   Overcast
9:56 AM 17.6 °F - 15.8 °F 93% 29.56 in 10.0 mi Calm Calm - N/A   Mostly Cloudy
10:16 AM 17.6 °F - 17.6 °F 100% 29.56 in 10.0 mi Calm Calm - N/A   Partly Cloudy
10:36 AM 17.6 °F - 17.6 °F 100% 29.55 in 10.0 mi Calm Calm - N/A   Clear
10:56 AM 17.6 °F - 15.8 °F 93% 29.55 in 10.0 mi Calm Calm - N/A   Clear
11:16 AM 19.4 °F - 15.8 °F 86% 29.55 in 10.0 mi Calm Calm - N/A   Partly Cloudy
11:36 AM 19.4 °F 14.3 °F 17.6 °F 93% 29.55 in 10.0 mi East 3.5 mph - N/A   Scattered Clouds
11:56 AM 21.2 °F 16.4 °F 19.4 °F 93% 29.55 in 10.0 mi East 3.5 mph - N/A   Clear
12:16 PM 21.2 °F - 19.4 °F 93% 29.55 in 10.0 mi Calm Calm - N/A   Scattered Clouds
12:36 PM 24.8 °F - 24.8 °F 100% 29.54 in 10.0 mi Calm Calm - N/A   Mostly Cloudy
12:56 PM 26.6 °F - 24.8 °F 93% 29.54 in 10.0 mi Calm Calm - N/A   Partly Cloudy
1:16 PM 24.8 °F - 23.0 °F 93% 29.54 in 10.0 mi Calm Calm - N/A   Clear
1:36 PM 26.6 °F - 24.8 °F 93% 29.53 in 10.0 mi Calm Calm - N/A   Clear
1:56 PM 28.4 °F - 26.6 °F 93% 29.53 in 10.0 mi Calm Calm - N/A   Clear
2:16 PM 26.6 °F - 26.6 °F 100% 29.53 in 10.0 mi Calm Calm - N/A   Clear
2:36 PM 28.4 °F - 28.4 °F 100% 29.52 in 10.0 mi Calm Calm - N/A   Clear
2:56 PM 28.4 °F 22.2 °F 26.6 °F 93% 29.52 in 10.0 mi West 5.8 mph - N/A   Clear
3:16 PM 28.4 °F 23.3 °F 26.6 °F 93% 29.53 in 10.0 mi WSW 4.6 mph - N/A   Clear
3:36 PM 28.4 °F 24.6 °F 24.8 °F 86% 29.52 in 10.0 mi West 3.5 mph - N/A   Clear
3:56 PM 30.2 °F - 26.6 °F 86% 29.52 in 8.0 mi Calm Calm - N/A   Clear
4:16 PM 30.2 °F - 28.4 °F 93% 29.52 in 10.0 mi Calm Calm - N/A   Clear
4:36 PM 28.4 °F - 24.8 °F 86% 29.52 in 10.0 mi Calm Calm - N/A   Clear
4:56 PM 26.6 °F - 23.0 °F 86% 29.51 in 10.0 mi Calm Calm - N/A   Clear
5:16 PM 26.6 °F - 24.8 °F 93% 29.51 in 2.0 mi Calm Calm - N/A   Clear
5:36 PM 24.8 °F - 23.0 °F 93% 29.51 in 0.5 mi Calm Calm - N/A   Unknown
5:56 PM 24.8 °F - 21.2 °F 86% 29.51 in 0.2 mi Calm Calm - N/A   Unknown
6:16 PM 24.8 °F - 21.2 °F 86% 29.51 in 5.0 mi Calm Calm - N/A   Clear
6:36 PM 21.2 °F - 19.4 °F 93% 29.51 in 0.2 mi Calm Calm - N/A   Unknown
6:56 PM 21.2 °F - 19.4 °F 93% 29.51 in 0.5 mi Calm Calm - N/A   Unknown
7:16 PM 19.4 °F - 15.8 °F 86% 29.50 in 1.2 mi Calm Calm - N/A   Clear
7:36 PM 21.2 °F - 19.4 °F 93% 29.50 in 4.0 mi Calm Calm - N/A   Clear
7:56 PM 17.6 °F - 14.0 °F 86% 29.50 in 10.0 mi Calm Calm - N/A   Clear
8:16 PM 17.6 °F - 15.8 °F 93% 29.50 in 10.0 mi Calm Calm - N/A   Clear
8:36 PM 15.8 °F - 15.8 °F 100% 29.49 in 0.8 mi Calm Calm - N/A   Mostly Cloudy
8:56 PM 15.8 °F - 14.0 °F 93% 29.50 in 7.0 mi Calm Calm - N/A   Partly Cloudy
9:16 PM 15.8 °F - 12.2 °F 86% 29.50 in 10.0 mi Calm Calm - N/A   Clear
9:36 PM 12.2 °F - 12.2 °F 100% 29.50 in 10.0 mi Calm Calm - N/A   Clear
9:56 PM 12.2 °F - 10.4 °F 92% 29.50 in 10.0 mi Calm Calm - N/A   Partly Cloudy
10:16 PM 12.2 °F - 10.4 °F 92% 29.50 in 10.0 mi Calm Calm - N/A   Mostly Cloudy
10:36 PM 14.0 °F - 12.2 °F 93% 29.50 in 10.0 mi Calm Calm - N/A   Overcast
10:56 PM 14.0 °F - 10.4 °F 86% 29.50 in 10.0 mi Calm Calm - N/A   Overcast
11:16 PM 14.0 °F - 10.4 °F 86% 29.50 in 10.0 mi Calm Calm - N/A   Overcast
11:36 PM 15.8 °F - 12.2 °F 86% 29.50 in 10.0 mi Calm Calm - N/A   Overcast
11:56 PM 17.6 °F - 14.0 °F 86% 29.50 in 10.0 mi Calm Calm - N/A   Overcast